Hourly Weather Roundup
Issued by NWS Central Illinois

Home | Current Version | Previous Version | Text Only | Print | Product List | Glossary On
Versions: 1 2 3 4 5 6 7 8 9 10 11 12 13 14 15 16 17 18 19 20 21 22 23 24 25 26 27 28 29 30 31 32 33 34 35 36 37 38 39 40 41 42 43 44 45 46 47 48 49 50
000
NZUS43 KILX 240210
HWRILX

AREA WEATHER ROUNDUP
NATIONAL WEATHER SERVICE, LINCOLN IL
900 PM CDT MON MAY 23 2016


CITY           SKY/WX    TMP DP  RH WIND       PRES   REMARKS
BLOOMINGTON    PTCLDY    70  52  52 S6        29.93S
CHAMPAIGN      CLOUDY    71  44  37 SE10      29.94F
DANVILLE       CLEAR     69  43  39 S6        29.94R
DECATUR        CLOUDY    72  52  49 S8        29.93S
EFFINGHAM      CLOUDY    68  58  70 E6        29.96S
FLORA          CLEAR     70  57  62 SE5       29.95S
GALESBURG      CLOUDY    69  50  49 CALM      29.88S
JACKSONVILLE   CLOUDY    73  52  46 S6        29.90S
LACON          PTCLDY    73  48  41 S3        29.88S
LAWRENCEVILLE  CLEAR     67  55  65 MISG      29.97S
LITCHFIELD     CLOUDY    70  52  53 S6        29.93S
$$


CITY           SKY/WX    TMP DP  RH WIND       PRES   REMARKS
LINCOLN        CLOUDY    74  50  42 S3        29.91S
MACOMB         CLOUDY    69  48  47 S6        29.90S
MATTOON        CLEAR     68  48  48 SE6       29.95R
MT CARMEL AP   CLEAR     68  55  63 SE6       29.96S
OLNEY-NOBLE AP PTCLDY    68  52  56 E5        29.96S
PARIS          CLEAR     69  48  48 CALM      29.98R
PEORIA         CLOUDY    73  47  39 S3        29.89S
PONTIAC        CLOUDY    75  47  37 SE8       29.92S
RANTOUL        PTCLDY    73  45  35 S8        29.94S
ROBINSON       CLEAR     61  54  77 SE5       29.97S
SPRINGFIELD    PTCLDY    72  50  45 S7        29.91S
TAYLORVILLE    PTCLDY    70  53  55 S6        29.93S
$$

...REGIONAL REPORTS...


CITY           SKY/WX    TMP DP  RH WIND       PRES   REMARKS
CHICAGO O`HARE MOCLDY    70  38  31 SE10      29.91S
KANKAKEE       CLEAR    N/A N/A N/A SE7       29.93S
MOLINE         MOCLDY    73  47  39 S5        29.86S
MOUNT STERLING CLOUDY    67  53  59 S5        29.88S
MOUNT VERNON   CLOUDY    63  55  77 NE3       29.96R
PITTSFIELD     CLOUDY    73  52  48 S7        29.91S
QUINCY         CLOUDY    72  48  42 S8        29.88S
ROCKFORD       MOCLDY    73  47  39 S6        29.90S
$$


CITY           SKY/WX    TMP DP  RH WIND       PRES   REMARKS
BURLINGTON     CLOUDY    71  51  49 SE7       29.86S
CEDAR RAPIDS   PTCLDY    72  53  51 SE5       29.83F
DES MOINES     CLOUDY    71  59  65 S3        29.83S
KIRKSVILLE     CLOUDY    71  57  61 SW5       29.89R
OTTUMWA        CLOUDY    69  53  56 S6        29.84R
ST LOUIS       CLOUDY    76  53  44 S6        29.94R
$$


CITY           SKY/WX    TMP DP  RH WIND       PRES   REMARKS
TERRE HAUTE    CLEAR     64  52  64 CALM      29.98R
EVANSVILLE     CLEAR     68  50  52 CALM      29.98R
INDIANAPOLIS   PTCLDY    67  39  35 S7        29.99S
LAFAYETTE      CLEAR     68  44  42 CALM      29.96S
MADISON        PTCLDY    75  47  36 S7        29.86S
MILWAUKEE      MOCLDY    66  37  34 S7        29.91S
$$





USA.gov is the U.S. government's official web portal to all federal, state and local government web resources and services.